EW7744 Weather Reports


time (UTC)temp
F
wind
direction
speed
knots
gust
knots
rain 1hr
in
rain 24hr
in
rain mn
in
humidity
%
barometer
mb
20260507153649 56 261 1.7 4.3 0.00 0.00 0.00 26 1010.3
20260507153139 55 261 1.7 3.5 0.00 0.00 0.00 26 1010.3
20260507152629 55 261 1.7 5.2 0.00 0.00 0.00 25 1010.4
20260507152119 54 261 1.7 5.2 0.00 0.00 0.00 25 1010.4
20260507151602 54 261 1.7 4.3 0.00 0.00 0.00 28 1010.5
20260507151051 54 261 0.9 3.5 0.00 0.00 0.00 31 1010.4
20260507150542 53 261 0.9 4.3 0.00 0.00 0.00 32 1010.4
20260507150031 53 261 0.9 3.5 0.00 0.00 0.00 35 1010.4
20260507145522 52 261 0.9 3.5 0.00 0.00 0.00 37 1010.4
20260507145011 51 261 0.9 3.5 0.00 0.00 0.00 38 1010.4
20260507144501 50 261 0.9 3.5 0.00 0.00 0.00 39 1010.4
20260507143951 49 261 0.9 4.3 0.00 0.00 0.00 41 1010.4
20260507143433 49 261 0.9 4.3 0.00 0.00 0.00 43 1010.5
20260507142923 48 261 0.9 3.5 0.00 0.00 0.00 44 1010.4
20260507142413 47 261 0.0 1.7 0.00 0.00 0.00 44 1010.5
20260507141903 46 261 0.0 1.7 0.00 0.00 0.00 46 1010.4
20260507141353 45 261 0.0 1.7 0.00 0.00 0.00 46 1010.4
20260507140844 45 261 0.0 1.7 0.00 0.00 0.00 47 1010.5
20260507140334 44 261 0.9 1.7 0.00 0.00 0.00 47 1010.4
20260507135823 43 261 0.9 3.5 0.00 0.00 0.00 49 1010.3
20260507135314 42 261 0.9 3.5 0.00 0.00 0.00 51 1010.4
20260507134803 42 261 0.9 3.5 0.00 0.00 0.00 50 1010.4
20260507134755 41 261 0.9 3.5 0.00 0.00 0.00 51 1010.4
20260507133743 40 261 0.0 1.7 0.00 0.00 0.00 52 1010.4
20260507133734 40 0 0.9 1.7 0.00 0.00 0.00 51 1010.5
20260507133223 40 0 1.7 3.5 0.00 0.00 0.00 51 1010.5
20260507132213 40 0 1.7 3.5 0.00 0.00 0.00 51 1010.4
20260507131704 39 261 0.9 3.5 0.00 0.00 0.00 52 1010.4
20260507131153 37 261 0.0 0.0 0.00 0.00 0.00 57 1010.4
20260507130643 36 261 0.0 0.0 0.00 0.00 0.00 60 1010.4
20260507130133 36 261 0.0 0.0 0.00 0.00 0.00 60 1010.4
20260507130125 35 0 0.0 0.0 0.00 0.00 0.00 58 1010.3
20260507125116 35 0 0.0 0.0 0.00 0.00 0.00 59 1010.3
20260507124605 34 0 0.0 0.0 0.00 0.00 0.00 58 1010.3
20260507124057 34 0 0.0 0.0 0.00 0.00 0.00 58 1010.3
20260507123557 34 0 0.0 0.0 0.00 0.00 0.00 58 1010.1
20260507123540 33 0 0.0 0.0 0.00 0.00 0.00 58 1010.1
20260507122532 33 0 0.0 0.0 0.00 0.00 0.00 58 1010.1
20260507122015 33 0 0.0 0.0 0.00 0.00 0.00 58 1010.1
20260507121507 33 0 0.0 0.0 0.00 0.00 0.00 57 1010.0
20260507121002 34 0 0.0 0.0 0.00 0.00 0.00 56 1010.0
20260507120455 34 0 0.0 0.0 0.00 0.00 0.00 55 1010.0
20260507115948 34 0 0.0 0.0 0.00 0.00 0.00 55 1010.0
20260507115442 34 0 0.0 0.0 0.00 0.00 0.00 54 1009.9
20260507114937 34 0 0.0 0.0 0.00 0.00 0.00 54 1009.9
20260507114932 35 0 0.0 0.0 0.00 0.00 0.00 54 1009.8
20260507113921 35 0 0.0 0.0 0.00 0.00 0.00 54 1009.7
20260507113413 35 0 0.0 0.0 0.00 0.00 0.00 54 1009.8
20260507112907 35 0 0.0 0.0 0.00 0.00 0.00 54 1009.8
20260507112401 35 0 0.0 0.0 0.00 0.00 0.00 53 1009.7
20260507111856 35 0 0.0 1.7 0.00 0.00 0.00 53 1009.7
20260507111352 35 0 0.0 1.7 0.00 0.00 0.00 53 1009.7
20260507110851 35 0 0.0 1.7 0.00 0.00 0.00 52 1009.7
20260507110345 36 0 0.9 3.5 0.00 0.00 0.00 52 1009.7
20260507105841 36 0 0.9 3.5 0.00 0.00 0.00 52 1009.6
20260507105836 36 0 1.7 3.5 0.00 0.00 0.00 51 1009.7
20260507104830 36 0 0.0 1.7 0.00 0.00 0.00 52 1009.6
20260507104324 37 0 0.9 3.5 0.00 0.00 0.00 52 1009.5
20260507103819 37 0 1.7 3.5 0.00 0.00 0.00 52 1009.5
20260507103309 37 0 1.7 3.5 0.00 0.00 0.00 52 1009.5
20260507102809 37 0 1.7 3.5 0.00 0.00 0.00 51 1009.5
20260507102258 37 0 1.7 3.5 0.00 0.00 0.00 51 1009.4
20260507101752 37 0 0.0 1.7 0.00 0.00 0.00 51 1009.4
20260507101244 37 0 0.0 1.7 0.00 0.00 0.00 50 1009.4
20260507100733 37 0 0.0 4.3 0.00 0.00 0.00 50 1009.6
20260507100225 37 0 0.0 4.3 0.00 0.00 0.00 50 1009.6
20260507095721 37 0 0.0 1.7 0.00 0.00 0.00 50 1009.6
20260507095214 37 0 0.0 1.7 0.00 0.00 0.00 50 1009.7
20260507094710 37 0 0.0 3.5 0.00 0.00 0.00 50 1009.7
20260507094207 37 0 0.9 3.5 0.00 0.00 0.00 50 1009.7
20260507094200 37 0 0.9 1.7 0.00 0.00 0.00 50 1009.7
20260507093155 36 0 0.0 1.7 0.00 0.00 0.00 51 1009.7
20260507092651 36 0 0.9 1.7 0.00 0.00 0.00 51 1009.6
20260507092139 36 0 0.9 3.5 0.00 0.00 0.00 51 1009.7
20260507091637 36 0 0.9 3.5 0.00 0.00 0.00 51 1009.7
20260507091128 36 0 1.7 3.5 0.00 0.00 0.00 50 1009.7
20260507091119 36 0 1.7 3.5 0.00 0.00 0.00 50 1009.7
20260507090109 36 0 1.7 3.5 0.00 0.00 0.00 50 1009.6
20260507085050 36 0 1.7 4.3 0.00 0.00 0.00 50 1009.6
20260507085044 36 0 1.7 6.1 0.00 0.00 0.00 49 1009.6
20260507084033 36 0 1.7 6.1 0.00 0.00 0.00 49 1009.7
20260507083526 36 0 1.7 6.1 0.00 0.00 0.00 50 1009.7
20260507083016 36 0 1.7 6.1 0.00 0.00 0.00 50 1009.7
20260507082507 36 0 0.9 4.3 0.00 0.00 0.00 50 1009.7
20260507081958 36 0 1.7 6.1 0.00 0.00 0.00 51 1009.8
20260507081448 36 0 1.7 4.3 0.00 0.00 0.00 51 1009.9
20260507080938 36 0 1.7 5.2 0.00 0.00 0.00 51 1009.8
20260507080931 36 0 2.6 7.0 0.00 0.00 0.00 51 1009.7
20260507075912 36 0 2.6 7.0 0.00 0.00 0.00 51 1009.7
20260507075400 36 0 1.7 5.2 0.00 0.00 0.00 50 1009.7
20260507074852 35 0 1.7 4.3 0.00 0.00 0.00 50 1009.8
20260507074342 35 0 1.7 4.3 0.00 0.00 0.00 50 1009.8
20260507073832 35 0 1.7 4.3 0.00 0.00 0.00 50 1009.8
20260507073320 34 0 0.9 4.3 0.00 0.00 0.00 50 1009.8
20260507072811 34 0 0.0 1.7 0.00 0.00 0.00 50 1009.8
20260507072301 34 0 0.0 1.7 0.00 0.00 0.00 50 1009.8
20260507071758 33 0 0.0 1.7 0.00 0.00 0.00 50 1009.8
20260507071246 33 0 0.0 1.7 0.00 0.00 0.00 50 1009.9
20260507071229 33 0 0.0 0.9 0.00 0.00 0.00 52 1009.9
20260507070833 33 0 0.0 0.0 0.00 0.00 0.00 51 1009.9
20260507065717 32 0 0.0 0.9 0.00 0.00 0.00 51 1009.9
20260507065209 32 0 0.0 0.0 0.00 0.00 0.00 52 1009.9
20260507064657 32 0 0.0 0.0 0.00 0.00 0.00 54 1010.0
20260507064147 32 0 0.0 0.0 0.00 0.00 0.00 54 1009.9
20260507063637 32 0 0.0 0.0 0.00 0.00 0.00 55 1010.0
20260507063126 32 0 0.0 1.7 0.00 0.00 0.00 55 1009.9
20260507063118 32 0 0.0 1.7 0.00 0.00 0.00 54 1010.0
20260507062106 32 0 0.0 0.0 0.00 0.00 0.00 54 1009.9
20260507062059 32 0 0.0 0.0 0.00 0.00 0.00 54 1010.0
20260507061046 32 0 0.0 0.0 0.00 0.00 0.00 54 1010.0
20260507060538 32 0 0.0 0.0 0.00 0.00 0.00 54 1010.0
20260507060037 32 0 0.0 0.0 0.00 0.00 0.00 53 1010.0
20260507055525 32 0 0.0 0.9 0.00 0.00 0.00 53 1010.1
20260507055015 32 0 0.0 0.9 0.00 0.00 0.00 53 1010.0
20260507054508 33 0 0.0 0.9 0.00 0.00 0.00 52 1010.0
20260507054000 33 0 0.0 1.7 0.00 0.00 0.00 52 1010.0
20260507053451 33 0 0.0 1.7 0.00 0.00 0.00 51 1010.0
20260507052945 33 0 0.0 1.7 0.00 0.00 0.00 51 1010.0
20260507052436 33 0 0.0 0.0 0.00 0.00 0.00 50 1010.0
20260507051925 34 0 0.0 0.0 0.00 0.00 0.00 49 1010.0
20260507051416 34 0 0.0 0.0 0.00 0.00 0.00 48 1010.0
20260507050905 35 0 0.0 0.0 0.00 0.00 0.00 47 1009.9
20260507050846 36 0 0.0 0.0 0.00 0.00 0.00 45 1010.0
20260507050451 35 0 0.0 0.0 0.00 0.00 0.00 46 1010.0
20260507045336 36 0 0.0 0.0 0.00 0.00 0.00 45 1010.0
20260507044825 37 0 0.0 0.9 0.00 0.00 0.00 44 1010.0
20260507044315 37 0 0.0 0.9 0.00 0.00 0.00 43 1010.0
20260507043804 38 0 0.0 0.9 0.00 0.00 0.00 41 1010.0
20260507043255 38 0 0.0 0.9 0.00 0.00 0.00 40 1010.0
20260507042744 39 0 0.0 0.0 0.00 0.00 0.00 39 1010.0
20260507042234 39 0 0.0 0.0 0.00 0.00 0.00 39 1010.0
20260507041724 40 0 0.0 0.9 0.00 0.00 0.00 38 1010.1
20260507041206 40 0 0.0 0.0 0.00 0.00 0.00 37 1010.1
20260507040657 41 0 0.0 1.7 0.00 0.00 0.00 36 1010.1
20260507040147 41 0 0.0 1.7 0.00 0.00 0.00 35 1010.1
20260507035636 42 0 0.9 1.7 0.00 0.00 0.00 34 1010.1
20260507035126 42 0 0.9 1.7 0.00 0.00 0.00 33 1010.3
20260507034616 42 0 0.9 1.7 0.00 0.00 0.00 33 1010.1
20260507034104 43 0 0.0 0.9 0.00 0.00 0.00 33 1010.3
20260507034055 43 0 0.0 0.0 0.00 0.00 0.00 32 1010.3
20260507033045 43 0 0.0 0.0 0.00 0.00 0.00 31 1010.3
20260507033035 43 0 0.0 0.9 0.00 0.00 0.00 32 1010.3
20260507032025 44 0 0.0 0.9 0.00 0.00 0.00 31 1010.3
20260507031515 44 0 0.0 0.0 0.00 0.00 0.00 31 1010.3
20260507031004 44 0 0.9 1.7 0.00 0.00 0.00 31 1010.3
20260507030454 44 0 1.7 3.5 0.00 0.00 0.00 31 1010.3
20260507025944 44 0 0.9 3.5 0.00 0.00 0.00 31 1010.3
20260507025435 45 0 0.0 1.7 0.00 0.00 0.00 30 1010.3
20260507024924 45 0 0.9 3.5 0.00 0.00 0.00 30 1010.3
20260507024415 46 0 1.7 3.5 0.00 0.00 0.00 30 1010.1
20260507023904 46 0 1.7 3.5 0.00 0.00 0.00 29 1010.1
20260507023355 47 0 1.7 4.3 0.00 0.00 0.00 29 1010.1
20260507022844 47 0 2.6 4.3 0.00 0.00 0.00 28 1010.1
20260507022835 48 0 2.6 4.3 0.00 0.00 0.00 28 1010.0
20260507021826 48 0 2.6 4.3 0.00 0.00 0.00 27 1010.0
20260507021314 49 0 2.6 4.3 0.00 0.00 0.00 27 1010.0
20260507020804 50 0 2.6 4.3 0.00 0.00 0.00 26 1010.0
20260507020254 51 0 2.6 6.1 0.00 0.00 0.00 26 1010.0
20260507020244 51 0 3.5 6.1 0.00 0.00 0.00 25 1010.0
20260507015230 52 0 4.3 6.1 0.00 0.00 0.00 25 1010.0
20260507015222 53 261 3.5 6.1 0.00 0.00 0.00 24 1010.0
20260507014208 53 261 4.3 7.8 0.00 0.00 0.00 23 1010.0
20260507013658 53 261 5.2 7.8 0.00 0.00 0.00 23 1010.0
20260507013149 54 261 5.2 8.7 0.00 0.00 0.00 23 1010.0
20260507012638 54 261 5.2 8.7 0.00 0.00 0.00 23 1010.0
20260507012630 54 261 6.1 10.4 0.00 0.00 0.00 23 1010.0
20260507011618 54 261 7.0 11.3 0.00 0.00 0.00 23 1010.0
20260507011109 54 261 6.1 11.3 0.00 0.00 0.00 23 1010.0
20260507010559 54 261 6.1 9.6 0.00 0.00 0.00 23 1010.0
20260507010055 54 261 6.1 11.3 0.00 0.00 0.00 23 1010.1
20260507005544 54 261 6.1 11.3 0.00 0.00 0.00 23 1010.1
20260507005035 54 261 7.8 11.3 0.00 0.00 0.00 22 1010.3
20260507004524 55 261 7.8 12.2 0.00 0.00 0.00 22 1010.3
20260507004514 55 261 7.0 12.2 0.00 0.00 0.00 23 1010.3
20260507003504 56 261 7.8 13.0 0.00 0.00 0.00 23 1010.4
20260507002955 56 261 7.0 13.0 0.00 0.00 0.00 23 1010.4
20260507002444 56 261 7.0 12.2 0.00 0.00 0.00 23 1010.4
20260507001934 56 261 7.8 13.0 0.00 0.00 0.00 23 1010.4
20260507001425 56 261 7.8 13.9 0.00 0.00 0.00 23 1010.5
20260507000914 56 261 8.7 13.0 0.00 0.00 0.00 22 1010.5
20260507000906 56 261 7.8 13.9 0.00 0.00 0.00 22 1010.5
20260506235855 56 261 7.8 13.9 0.00 0.00 0.00 22 1010.6
20260506235344 56 261 7.8 13.0 0.00 0.00 0.00 22 1010.6
20260506234835 56 261 6.1 13.0 0.00 0.00 0.00 23 1010.6
20260506234325 55 261 6.1 13.0 0.00 0.00 0.00 23 1010.6
20260506233814 55 261 7.8 13.0 0.00 0.00 0.00 23 1010.7
20260506233303 56 261 7.8 13.0 0.00 0.00 0.00 22 1010.7
20260506233248 56 261 8.7 15.6 0.00 0.00 0.00 22 1010.7
20260506232908 56 261 9.6 13.9 0.00 0.00 0.00 21 1010.8
20260506231738 56 261 11.3 18.2 0.00 0.00 0.00 23 1010.8
20260506231220 57 261 8.7 18.2 0.00 0.00 0.00 21 1010.8
20260506231202 56 261 9.6 17.4 0.00 0.00 0.00 22 1010.8
20260506230807 56 261 8.7 17.4 0.00 0.00 0.00 23 1010.7
20260506225650 56 261 9.6 18.2 0.00 0.00 0.00 21 1010.8
20260506225141 56 261 9.6 18.2 0.00 0.00 0.00 22 1010.8
20260506224631 56 261 9.6 16.5 0.00 0.00 0.00 21 1010.9
20260506224120 56 261 7.8 15.6 0.00 0.00 0.00 21 1011.0
20260506223611 56 261 6.1 12.2 0.00 0.00 0.00 22 1011.1
20260506223100 56 261 7.0 17.4 0.00 0.00 0.00 22 1011.0
20260506222551 56 261 7.8 17.4 0.00 0.00 0.00 23 1011.2
20260506222040 56 261 9.6 20.0 0.00 0.00 0.00 23 1011.3
20260506221530 56 261 11.3 20.0 0.00 0.00 0.00 22 1011.4
20260506221031 56 261 9.6 20.0 0.00 0.00 0.00 21 1011.5
20260506220520 56 261 8.7 20.0 0.00 0.00 0.00 22 1011.5
20260506220512 56 261 8.7 15.6 0.00 0.00 0.00 22 1011.7
20260506215500 56 261 10.4 16.5 0.00 0.00 0.00 21 1011.8
20260506215453 56 261 9.6 16.5 0.00 0.00 0.00 22 1011.8
20260506214442 56 261 8.7 16.5 0.00 0.00 0.00 22 1011.9
20260506214436 56 261 10.4 16.5 0.00 0.00 0.00 21 1011.9
20260506213424 56 261 9.6 20.0 0.00 0.00 0.00 21 1012.1
20260506212917 56 261 7.8 17.4 0.00 0.00 0.00 21 1012.1
20260506212408 56 261 10.4 19.1 0.00 0.00 0.00 22 1012.2
20260506212401 56 261 10.4 19.1 0.00 0.00 0.00 21 1012.3
20260506211844 56 261 9.6 18.2 0.00 0.00 0.00 25 1012.4
20260506211447 56 261 8.7 16.5 0.00 0.00 0.00 22 1012.4
20260506210332 56 261 10.4 18.2 0.00 0.00 0.00 23 1012.5
20260506205825 55 261 9.6 18.2 0.00 0.00 0.00 23 1012.6
20260506205317 55 261 8.7 18.2 0.00 0.00 0.00 23 1012.7
20260506205309 55 261 8.7 15.6 0.00 0.00 0.00 22 1012.7
20260506204300 55 261 9.6 18.2 0.00 0.00 0.00 22 1012.8
20260506204254 55 261 10.4 18.2 0.00 0.00 0.00 23 1012.8
20260506203244 54 261 10.4 20.9 0.00 0.00 0.00 24 1012.9
20260506202738 54 261 8.7 20.9 0.00 0.00 0.00 22 1013.2
20260506202240 54 261 7.0 13.9 0.00 0.00 0.00 24 1013.2
20260506202236 55 261 7.8 15.6 0.00 0.00 0.00 22 1013.2
20260506201231 55 261 6.1 13.0 0.00 0.00 0.00 23 1013.3
20260506200726 54 261 6.1 16.5 0.00 0.00 0.00 23 1013.4
20260506200221 54 261 7.8 16.5 0.00 0.00 0.00 24 1013.5
20260506195718 54 261 9.6 16.5 0.00 0.00 0.00 23 1013.6
20260506195217 54 261 8.7 16.5 0.00 0.00 0.00 22 1013.6
20260506194713 54 261 7.8 11.3 0.00 0.00 0.00 25 1013.7
20260506194211 54 261 7.0 15.6 0.00 0.00 0.00 24 1013.7
20260506193708 53 261 6.1 15.6 0.00 0.00 0.00 24 1013.9
20260506193205 53 261 8.7 20.0 0.00 0.00 0.00 27 1014.0
20260506192658 52 261 11.3 20.0 0.00 0.00 0.00 25 1014.1
20260506192153 52 261 11.3 18.2 0.00 0.00 0.00 25 1014.3
20260506191650 51 261 9.6 17.4 0.00 0.00 0.00 25 1014.5
20260506191150 52 261 8.7 15.6 0.00 0.00 0.00 24 1014.5
20260506190642 52 261 7.0 13.9 0.00 0.00 0.00 26 1014.6
20260506190140 51 261 7.0 13.0 0.00 0.00 0.00 26 1014.5
20260506190135 51 261 8.7 13.9 0.00 0.00 0.00 25 1014.7
20260506185129 51 261 8.7 13.9 0.00 0.00 0.00 25 1014.8
20260506184623 50 261 7.0 13.9 0.00 0.00 0.00 25 1015.0
20260506184119 50 261 7.8 13.9 0.00 0.00 0.00 26 1015.0
20260506183617 50 261 7.8 13.9 0.00 0.00 0.00 24 1015.0
20260506183114 50 261 7.8 13.0 0.00 0.00 0.00 26 1015.1
20260506183108 50 261 8.7 16.5 0.00 0.00 0.00 25 1015.3
20260506182713 50 261 8.7 13.9 0.00 0.00 0.00 25 1015.1
20260506181559 50 261 8.7 16.5 0.00 0.00 0.00 25 1015.3
20260506181053 50 261 7.8 16.5 0.00 0.00 0.00 26 1015.5
20260506180548 49 261 7.8 16.5 0.00 0.00 0.00 27 1015.5
20260506180039 49 261 9.6 17.4 0.00 0.00 0.00 25 1015.6
20260506175537 49 261 9.6 17.4 0.00 0.00 0.00 26 1015.7
20260506175027 49 261 8.7 13.9 0.00 0.00 0.00 25 1015.7
20260506174523 49 261 7.0 16.5 0.00 0.00 0.00 26 1015.9
20260506174014 48 261 7.8 16.5 0.00 0.00 0.00 27 1016.0
20260506174009 48 261 9.6 17.4 0.00 0.00 0.00 26 1016.1
20260506173000 47 261 10.4 18.2 0.00 0.00 0.00 27 1016.1
20260506172448 47 261 11.3 18.2 0.00 0.00 0.00 26 1016.2
20260506171939 48 261 9.6 17.4 0.00 0.00 0.00 27 1016.2
20260506171441 47 261 9.6 17.4 0.00 0.00 0.00 27 1016.2
20260506170924 47 261 10.4 17.4 0.00 0.00 0.00 27 1016.2
20260506170416 47 261 10.4 17.4 0.00 0.00 0.00 27 1016.3
20260506170406 47 261 8.7 16.5 0.00 0.00 0.00 27 1016.3
20260506165355 47 261 8.7 15.6 0.00 0.00 0.00 28 1016.4
20260506164849 47 261 9.6 18.2 0.00 0.00 0.00 28 1016.5
20260506164348 47 261 9.6 18.2 0.00 0.00 0.00 29 1016.6
20260506163838 47 261 8.7 13.9 0.00 0.00 0.00 28 1016.6
20260506163328 46 261 9.6 16.5 0.00 0.00 0.00 28 1016.7
20260506162817 46 261 9.6 15.6 0.00 0.00 0.00 31 1016.7
20260506162307 46 261 10.4 18.2 0.00 0.00 0.00 30 1016.7
20260506161758 46 261 10.4 18.2 0.00 0.00 0.00 29 1016.8
20260506161245 46 261 9.6 16.5 0.00 0.00 0.00 30 1016.8
20260506160735 46 261 8.7 16.5 0.00 0.00 0.00 31 1016.8
20260506160225 45 261 8.7 13.9 0.00 0.00 0.00 32 1016.8
20260506155716 45 261 8.7 13.9 0.00 0.00 0.00 31 1016.9
20260506155205 45 261 7.8 13.0 0.00 0.00 0.00 33 1016.8
20260506154655 45 261 8.7 13.0 0.00 0.00 0.00 32 1017.0
20260506154145 45 261 7.8 13.0 0.00 0.00 0.00 32 1017.0